Regional Weather Roundup
Issued by NWS

Home | Current Version | Previous Version | Graphics & Text | Print | Product List | Glossary On
Versions: 1 2 3 4 5 6 7 8 9 10 11 12 13 14 15 16 17 18 19 20 21 22 23 24 25 26 27 28 29 30 31 32 33 34 35 36 37 38 39 40 41 42 43 44 45 46 47 48 49 50
000
ASUS44 KMEG 311310
RWRTN
TENNESSEE HOURLY STATE WEATHER ROUNDUP
NATIONAL WEATHER SERVICE MEMPHIS TN
800 AM CDT THU JUL 31 2014

TNZ002-004-019-021-049-052-054-088>092-311400-
WEST TENNESSEE

CITY           SKY/WX    TMP DP  RH WIND       PRES   REMARKS
MEMPHIS INTL   CLOUDY    71  66  84 NW6       30.10R
NWS MEMPHIS      N/A     70 N/A N/A MISG        N/A
JACKSON        CLOUDY    70  65  84 CALM      30.11R
DYERSBURG      CLOUDY    70  57  64 CALM      30.11S
UNION CITY     CLOUDY    68  66  94 CALM      30.10R
PARIS          MOSUNNY   68  63  84 SW3       30.12R
LEXINGTON      MOSUNNY   64  63  94 CALM      30.10R
SAVANNAH       CLOUDY    67  67 100 CALM      30.11R
$$

TNZ008-025-027-028-033-062-065-066-311400-
NORTH MIDDLE TENNESSEE

CITY           SKY/WX    TMP DP  RH WIND       PRES   REMARKS
NASHVILLE      CLOUDY    65  61  87 CALM      30.12R
DICKSON        CLOUDY    64  59  82 CALM      30.11R
PORTLAND       SUNNY     63  61  94 CALM      30.11R
CLARKSVILLE    MOSUNNY   66  61  84 CALM      30.11R
LEBANON        CLOUDY    63  58  83 CALM      30.10R
SMYRNA         CLOUDY    65  65 100 CALM      30.13R
MURFREESBORO   CLOUDY    65  62  90 CALM      30.11R
COOKEVILLE     SUNNY     63  61  94 CALM      30.12R
LIVINGSTON       N/A     65  59  81 CALM      30.13
GALLATIN       CLOUDY    63  61  93 CALM      30.12R
CROSSVILLE     CLOUDY    63  59  87 NE3       30.15R
$$

TNZ061-075-076-078-094-096-097-311400-
SOUTH MIDDLE TENNESSEE

CITY           SKY/WX    TMP DP  RH WIND       PRES   REMARKS
LEWISBURG      CLOUDY    65  61  87 CALM      30.11R
FAYETTEVILLE   SUNNY     64  59  82 NE10      30.11S
TULLAHOMA      SUNNY     66  61  82 CALM      30.13R
WINCHESTER     SUNNY     63  61  94 CALM      30.12R
MCMINNVILLE    SUNNY     64  64 100 CALM      30.12S
COLUMBIA       SUNNY     66  64  94 CALM      30.10R
SHELBYVILLE    SUNNY     64  63  94 CALM      30.12S
$$

TNZ017-018-042-046-047-311400-
NORTHEAST TENNESSEE

CITY           SKY/WX    TMP DP  RH WIND       PRES   REMARKS
TRI CITIES     CLOUDY    62  57  83 CALM      30.16S
ELIZABETHTON   SUNNY     61  55  82 NE3         N/A
$$

TNZ012-013-036-069-073-074-311400-
CENTRAL EAST TENNESSEE

CITY           SKY/WX    TMP DP  RH WIND       PRES   REMARKS
KNOXVILLE      CLOUDY    64  60  87 NE7       30.11R
OAK RIDGE      CLOUDY    64  63  96 CALM      30.13R
GATLINBURG     SUNNY     61  57  88 CALM      30.12R
MORRISTOWN     SUNNY     63  59  88 E9        30.13F
$$

TNZ083-085-099-311400-
SOUTHEAST TENNESSEE

CITY           SKY/WX    TMP DP  RH WIND       PRES   REMARKS
CHATTANOOGA    CLOUDY    70  60  70 N8        30.10R
$$

SKY/WX REPORTED AS FAIR MEANS FEW OR NO CLOUDS BELOW
12 THOUSAND FEET.



USA.gov is the U.S. government's official web portal to all federal, state and local government web resources and services.